sat.trackr.live / text

‹ back to catalog

STARLINK-31588

NORAD 59335 · 2024-057R

PAYLOAD ACTIVE UNKNOWN

§ Identity

Operator
Country
US
Launch date
2024-03-25
Launch site
AFETR
Launch vehicle
Mass (kg)
RCS (m²)

Purposes: comms

External: N2YO · Heavens-Above · Gunter

§ Orbital elements

Epoch: 2026-09-20T02:06:25.881984Z

Period
94.27 min
Inclination
43.0005°
Eccentricity
0.0001064
Mean motion
15.27578752 rev/d
Perigee alt
482.3 km
Apogee alt
483.8 km
Semi-major
6,861.2 km
B*
5.4921e-5
RAAN
168.8768°
Arg perigee
269.7927°
Mean anomaly
90.2803°
Rev number
13,957

§ Raw data

STARLINK-315881 59335U 24057R   26263.08779956  .00001250  00000+0  54921-4 0  99952 59335  43.0005 168.8768 0001064 269.7927  90.2803 15.27578752139572

JSON: /api/v1/satellites/59335 · /tle

For live sub-satellite position, see the globe view (requires WebGL).

§ Visibility from observer

Set your observer location to see the next 7 days of passes ≥ 10°. The values pass through the URL so the page stays shareable.

No JS? Fill the form by hand. The geolocation button needs JavaScript.